Location: Newport
(44.6370°N, 124.0520°W)
Time: 07:51:23
(UTC-08:00)

Vanguard 1 - Pass Details

Date: 27 July 2018
Orbit: 650 x 3833 km, 34.2° (Epoch: 09 December)

Event Time Altitude Azimuth Distance (km) Brightness Sun altitude
Rises 22:56:39 0° 248° (WSW) 5,066 13.9 -18.2°
Reaches altitude 10° 23:00:59 10° 241° (WSW) 3,552 13.0 -18.6°
Maximum altitude 23:08:03 32° 181° (S) 1,618 10.7 -19.4°
Enters shadow 23:08:47 31° 168° (SSE) 1,589 10.6 -19.4°
